MUOS-2

Last updated on Sun Oct 06 2024 00:02:40 GMT+0000 (Coordinated Universal Time)

1 39206U 13036A 24279.57276319 .00000076 00000+0 00000+0 0 9998 2 39206 3.8145 41.9219 0056491 178.3558 183.6772 1.00268295 40989
UTC large
Height (km)
Speed (km/s)
/
Latitude / Longitude
Inclination (degrees)
Orbital Period (minutes)
Azimuth
Elevation
Range (km)
Doppler Factor

Next 0 passes for location: London (51.5072 / 0.1276)

Sorry there are no passes over London.